Wind_Speed
49 51 52 52 51 51 50 50 51 48 44 43 44 43 42 41 40 37 28 24 36 40 34 35 35 28 31 40 36 32 33 35 35 35 32 30 32 35 34 33 33 33 35 35 33 33 32 32 30 28 28 28 25 22 24 25 27 29 30 29 29 30 29 28 27 29 29 28 26 26 27 26 23 20 19 18 18 15 12 11 9 9 9 8 8 8
49 51 51 49 49 49 49 51 51 47 45 44 40 41 42 41 38 34 31 26 31 39 33 34 33 29 33 37 36 34 33 33 34 33 32 30 31 33 34 34 32 33 36 34 32 31 30 31 29 29 31 29 25 24 24 24 28 31 30 29 29 30 28 26 26 28 29 29 28 26 25 24 22 21 21 20 19 17 13 10 10 9 8 9 8 8
51 51 49 48 48 49 50 51 49 45 46 46 39 32 36 43 37 29 28 27 29 34 28 31 30 27 35 37 35 36 34 32 32 30 28 27 29 31 32 33 31 31 33 32 31 29 29 31 31 31 32 30 27 25 25 24 27 32 32 30 29 29 29 28 29 27 24 24 26 25 23 22 22 22 22 21 19 17 13 9 8 8 9 9 9 9
51 50 48 48 48 50 50 49 48 46 45 48 44 33 28 36 36 29 24 25 33 35 24 23 26 27 36 39 37 36 33 32 31 28 27 25 25 28 29 31 30 29 30 30 31 29 28 29 30 30 31 31 28 26 26 26 27 30 31 30 28 28 30 30 30 27 23 23 23 22 21 22 22 22 20 18 16 13 10 8 8 8 9 9 9 9
47 46 46 47 48 49 49 48 48 47 46 48 49 42 29 26 34 33 22 23 34 36 27 22 23 32 39 41 39 36 33 34 31 27 27 26 25 26 27 28 27 27 27 28 28 28 30 30 28 29 30 29 28 26 26 26 27 27 27 27 26 26 30 30 29 27 26 26 24 21 21 21 21 20 18 15 12 9 7 7 8 9 9 10 10 9
46 44 44 46 47 49 49 49 48 46 46 48 49 47 33 21 31 32 21 27 38 35 32 29 24 32 41 42 41 37 35 35 30 26 26 26 25 25 26 26 25 25 27 26 25 26 30 33 29 28 29 29 27 25 24 23 23 23 23 23 22 24 28 29 28 26 26 25 23 21 21 21 21 19 16 13 10 7 7 8 9 10 10 10 10 10
45 44 44 45 47 48 48 48 46 45 47 48 50 50 38 23 25 29 23 32 41 34 34 35 32 33 39 41 40 37 35 33 28 25 25 24 23 25 26 27 26 26 25 25 23 21 23 28 27 26 28 27 26 24 22 22 22 23 23 21 20 23 25 26 25 24 25 23 21 21 19 18 19 17 13 10 8 7 8 9 10 11 12 12 11 11
46 45 46 46 46 47 47 47 47 46 47 49 50 51 45 31 22 24 26 32 35 31 33 37 38 37 37 38 36 33 33 32 29 27 26 24 23 25 27 26 26 26 24 23 22 20 19 22 23 24 25 25 26 24 23 23 23 24 24 22 23 24 23 25 25 23 23 23 22 22 19 17 15 12 9 9 9 9 10 10 11 12 13 13 13 12
45 46 47 46 46 47 47 47 47 47 48 49 50 50 48 40 31 30 32 33 29 25 30 35 39 41 39 37 34 31 31 32 29 26 26 27 25 25 26 25 25 25 22 20 20 20 19 20 20 21 21 21 22 22 21 21 21 21 22 23 25 26 24 24 25 24 23 22 22 21 19 15 10 9 9 10 10 10 10 10 12 13 13 14 14 13
44 44 45 45 46 46 46 45 47 48 48 49 47 43 47 46 39 38 34 31 31 26 28 32 37 44 41 39 41 37 32 31 28 25 26 28 28 26 25 26 25 24 21 17 16 18 18 19 20 19 18 17 18 19 19 18 15 15 17 19 21 23 24 23 24 24 22 20 20 18 15 12 10 10 10 10 10 10 10 11 12 13 14 15 15 15
42 42 42 44 45 43 45 45 46 46 46 48 40 31 41 48 42 40 31 25 33 34 32 30 31 40 40 37 45 43 36 31 27 27 27 26 27 27 26 26 25 23 21 18 16 16 17 18 18 17 15 15 16 17 17 15 12 12 15 16 17 19 21 22 21 20 19 18 17 15 15 13 11 10 10 10 11 11 11 12 13 14 15 15 16 16
36 41 42 43 43 41 43 45 44 46 46 47 40 27 35 46 45 44 35 26 33 37 36 33 26 31 36 37 42 40 38 37 29 25 25 24 24 26 26 25 24 22 20 19 17 16 18 19 17 15 14 13 13 13 14 15 14 15 16 14 14 15 17 19 18 17 18 17 17 16 14 12 11 11 11 11 12 12 13 14 15 16 16 16 17 17
32 40 43 42 45 44 46 47 45 48 47 45 45 36 32 41 47 50 45 37 37 35 32 29 26 24 30 37 42 40 39 40 34 26 24 24 24 25 27 24 21 22 21 19 18 18 20 19 17 15 13 12 11 12 13 15 16 17 15 13 13 13 15 18 19 19 20 20 17 14 13 12 12 12 12 13 14 15 15 16 16 17 17 17 17 17
29 31 38 44 50 50 48 47 45 49 48 45 48 42 31 37 48 54 53 49 44 34 24 21 23 26 28 32 38 41 42 40 36 32 27 26 26 26 26 23 21 22 21 18 18 20 21 19 16 15 14 13 11 11 13 14 15 15 14 13 13 15 18 20 22 23 22 18 15 14 14 14 13 13 13 14 15 16 16 17 17 17 16 16 17 17
32 32 40 47 52 50 47 45 43 46 46 45 48 42 33 38 48 54 56 53 47 38 29 21 22 30 33 29 27 33 41 40 36 34 31 29 29 26 24 24 24 22 18 17 18 20 20 18 17 15 13 12 10 9 11 12 14 15 14 13 13 15 18 20 21 20 17 15 14 14 14 14 14 14 15 15 16 17 17 17 16 16 16 16 17 18
36 37 43 46 47 45 45 42 36 37 43 47 45 38 36 41 43 49 53 48 41 37 36 31 26 27 30 29 27 28 34 38 37 35 33 34 32 27 26 26 24 21 16 16 19 20 20 18 16 15 13 12 9 8 10 11 13 15 16 15 14 14 16 17 17 16 15 15 15 14 14 14 15 15 16 17 17 17 16 16 16 16 17 17 18 19
32 36 39 41 41 41 44 43 35 34 42 47 45 40 41 38 30 32 40 42 38 34 36 39 35 30 26 28 33 36 37 37 38 38 35 35 33 28 27 25 21 19 16 16 19 21 19 18 16 15 14 12 10 10 10 11 13 14 15 14 14 14 15 16 15 15 16 15 15 15 15 16 16 17 17 17 17 16 15 16 16 17 18 19 20 20
23 26 32 36 39 40 43 43 35 34 41 46 47 45 40 32 23 21 26 34 38 37 37 39 38 36 33 31 34 40 43 40 39 40 37 35 35 28 22 21 19 18 17 17 21 21 18 17 17 16 15 12 11 11 11 12 13 13 12 12 13 14 15 16 16 16 16 16 16 16 17 17 18 18 18 17 16 15 15 16 17 18 19 19 20 20
19 18 25 32 37 39 43 43 33 31 40 46 44 41 36 33 33 29 24 27 34 40 43 40 36 37 37 38 38 38 41 42 40 39 37 38 38 29 20 19 19 18 18 19 22 21 18 18 18 17 16 14 12 12 13 14 13 11 11 11 12 12 13 15 17 17 16 16 17 18 18 18 18 18 17 16 16 16 16 17 17 18 19 19 20 20
22 18 21 29 34 38 43 46 41 37 43 44 35 33 39 42 41 35 27 23 26 35 44 40 36 36 37 41 45 43 42 43 42 39 38 38 34 27 24 23 20 18 18 20 22 20 18 18 19 19 19 18 15 15 15 13 11 11 12 11 10 11 13 15 17 18 18 18 19 19 18 18 18 17 17 17 17 17 17 17 18 18 19 19 20 21
26 22 20 28 31 37 44 46 47 45 45 45 33 27 39 47 44 38 31 23 18 25 37 41 39 37 37 37 41 44 45 45 43 42 41 38 31 28 29 26 22 19 19 20 21 20 19 19 20 20 20 19 17 15 13 12 11 13 13 12 10 11 13 15 16 18 19 19 19 19 19 18 18 18 18 18 18 17 18 18 19 20 20 21 22 22
29 28 27 33 32 37 43 42 43 43 42 46 38 25 34 45 43 40 37 28 19 19 26 35 39 36 34 34 35 38 40 42 44 44 44 42 36 33 32 27 25 23 21 21 21 21 21 21 21 21 21 20 18 14 12 12 12 13 14 14 12 12 14 16 17 19 19 20 20 19 19 19 19 19 19 19 19 18 19 20 20 21 22 23 23 24
28 29 29 36 31 31 39 38 39 41 39 45 44 31 31 41 42 41 42 34 23 18 18 22 30 31 31 34 38 39 36 37 42 45 46 45 40 36 33 29 26 25 25 25 24 23 23 22 22 22 22 21 19 16 14 14 14 15 15 14 14 14 15 16 18 20 20 20 20 20 19 19 19 19 19 19 20 20 21 22 22 23 23 24 25 25
29 29 28 35 28 22 31 35 36 40 39 43 47 41 35 38 44 45 41 33 25 20 18 19 23 28 34 39 40 38 34 32 34 40 46 46 41 36 33 29 25 26 27 28 27 26 25 24 24 23 23 22 20 18 17 16 17 16 15 15 15 16 17 17 17 18 20 21 22 21 21 21 20 20 20 21 22 22 23 23 24 24 25 26 26 27
32 32 30 36 32 25 29 35 38 41 43 44 46 45 40 35 39 42 34 28 29 26 20 19 21 25 34 42 43 39 33 28 28 33 40 42 39 37 33 29 27 27 27 28 29 29 26 25 25 24 24 23 21 20 19 18 18 17 17 16 16 17 17 17 17 18 20 23 24 23 22 22 21 20 21 21 22 22 23 24 24 25 26 27 28 29
32 35 33 36 38 35 34 38 42 44 45 44 43 44 44 36 30 33 32 29 33 32 23 18 19 25 29 32 39 43 39 35 33 34 37 37 33 29 28 28 29 29 28 28 30 30 29 27 26 26 25 24 23 21 20 19 18 18 19 18 17 18 19 20 21 21 22 24 25 24 23 22 21 21 21 21 21 22 23 24 25 25 27 28 29 30
34 35 36 36 35 34 32 34 38 41 41 41 39 39 44 43 32 27 32 35 35 33 29 23 21 27 31 27 29 35 39 40 41 41 40 38 31 25 23 25 28 30 29 29 30 31 30 29 28 27 26 25 23 21 20 21 20 20 20 19 19 20 21 21 21 21 22 23 24 25 24 24 23 23 23 23 23 23 24 25 26 27 28 29 30 31
39 35 36 37 29 22 23 27 31 35 35 35 37 38 40 47 43 32 32 35 33 29 29 28 29 33 36 34 31 31 32 36 39 40 39 37 33 30 27 25 26 29 30 30 31 32 31 30 29 28 27 25 24 23 23 23 22 21 20 20 20 20 19 19 19 18 19 20 22 24 24 25 25 24 24 24 24 25 25 26 27 28 28 29 31 32
42 38 36 34 25 15 15 18 21 29 32 32 38 41 40 43 46 42 34 28 29 31 28 25 31 36 37 38 37 35 34 34 33 31 29 28 29 29 28 27 27 28 29 30 31 31 31 31 30 29 27 26 25 26 26 24 22 21 21 21 20 18 17 18 18 18 19 20 21 22 22 22 23 23 23 24 24 25 26 27 28 29 30 31 32 34
43 41 36 29 21 17 16 14 15 21 27 30 34 38 40 39 42 46 40 27 27 34 31 24 27 32 33 37 39 40 40 40 35 29 24 22 23 24 25 26 27 28 29 30 30 31 32 32 30 29 29 28 27 27 26 23 22 22 21 20 18 17 16 17 19 19 19 19 19 20 20 21 21 22 22 23 24 25 27 29 30 31 32 33 34 36
43 41 37 27 19 19 19 14 15 19 22 25 28 32 37 39 41 46 47 39 35 33 31 30 30 27 27 32 38 39 40 40 36 30 27 24 22 22 23 23 25 28 30 30 31 33 33 32 30 30 29 29 29 28 25 24 24 23 21 19 18 18 18 20 21 21 20 19 19 20 21 21 21 22 23 24 26 28 29 31 32 33 34 35 36 37
39 37 37 31 24 26 25 16 14 18 19 22 25 31 36 40 41 44 46 48 47 40 35 36 35 32 30 31 31 32 34 36 34 30 30 28 24 23 23 23 25 28 31 33 34 34 32 30 29 28 29 31 31 29 27 27 26 24 20 19 20 20 20 21 21 21 20 20 21 22 22 22 22 23 24 26 28 29 31 32 34 34 34 35 36 37
35 36 35 33 31 32 29 21 17 19 21 23 27 30 32 36 40 42 43 46 48 47 43 40 35 35 40 40 33 28 27 29 31 30 30 30 28 26 26 27 28 30 32 34 34 32 30 28 27 29 32 33 32 29 28 29 27 24 21 21 22 22 22 22 21 21 20 21 23 23 23 24 24 26 27 28 30 31 32 33 34 34 35 35 36 37
35 36 34 32 32 31 28 24 25 28 29 30 31 29 27 29 34 38 41 42 44 46 47 43 36 35 43 47 43 37 31 26 26 28 28 30 30 29 28 28 30 31 33 34 34 31 29 28 29 32 34 33 30 28 28 28 27 25 24 25 25 25 24 23 22 22 22 23 24 24 25 26 27 28 29 31 32 33 35 35 35 35 36 36 37 37
35 34 32 31 30 27 27 29 31 33 33 32 31 30 29 29 30 32 34 34 36 40 45 47 44 42 44 45 42 39 37 33 31 28 26 27 27 26 26 28 30 32 33 33 33 31 31 31 33 35 34 31 28 28 28 28 28 29 30 30 30 28 27 24 23 23 23 24 25 26 27 28 29 30 31 32 34 35 36 37 37 37 37 37 37 36
32 31 31 31 28 25 28 33 33 31 31 31 28 27 29 32 33 33 35 35 35 37 41 45 46 45 46 45 40 36 36 36 36 33 29 27 26 26 26 26 29 32 31 31 31 32 32 33 34 34 32 29 28 28 28 28 31 34 35 35 34 31 27 25 24 23 23 24 26 27 27 28 28 30 31 32 34 36 37 38 38 36 35 34 33 32
30 30 30 31 29 27 28 31 32 29 29 30 29 26 26 29 32 34 37 39 39 37 37 41 44 44 46 46 43 40 38 35 34 34 33 28 27 27 27 26 27 30 30 29 30 32 33 34 34 33 31 29 29 28 27 27 30 35 38 39 36 31 26 24 23 23 24 25 26 26 27 27 28 30 31 32 33 33 33 34 33 31 29 29 30 31
29 29 30 28 27 28 28 28 30 30 28 26 27 26 24 26 31 33 34 37 39 38 38 40 42 42 44 45 44 42 40 36 34 35 33 29 27 28 29 28 27 28 29 29 29 30 32 32 33 33 31 31 30 28 27 27 27 29 33 35 32 27 23 22 23 24 25 25 25 26 26 27 28 29 30 31 31 30 28 28 28 28 28 29 30 30
29 29 28 26 26 28 30 30 30 29 26 23 23 25 25 26 30 31 31 33 35 36 37 39 40 40 40 42 45 43 38 34 34 33 31 30 29 28 29 30 29 29 29 29 29 30 30 31 31 31 30 30 28 26 26 27 25 22 23 25 24 22 21 22 24 24 24 24 24 25 26 26 27 28 29 30 29 27 25 24 25 26 27 28 29 28
28 28 28 27 27 28 30 30 28 27 26 23 22 23 25 26 28 29 30 31 32 34 36 37 38 37 35 37 43 43 37 32 31 29 27 29 31 30 30 30 31 31 30 29 29 29 30 30 30 29 28 27 26 26 26 27 26 23 20 19 20 20 22 23 23 23 23 23 23 24 25 26 26 27 28 28 27 24 22 22 23 23 24 26 26 27
24 26 27 27 27 28 29 29 27 25 24 22 21 22 24 25 27 29 30 31 31 33 34 34 34 34 32 35 40 41 36 35 35 31 28 29 30 30 30 31 31 31 31 30 30 29 29 29 28 26 25 24 25 25 24 24 24 23 20 20 20 21 21 21 22 23 23 23 23 23 24 25 26 27 27 27 25 23 22 22 22 23 24 25 25 26
22 24 27 27 27 27 28 28 28 26 23 21 22 23 23 24 25 27 28 29 30 30 31 31 32 33 32 33 36 36 34 37 39 36 31 29 29 28 30 31 31 31 31 31 31 29 28 27 25 24 23 22 22 22 21 21 22 21 21 21 21 21 21 22 23 23 23 23 23 23 24 25 26 27 27 26 25 23 22 22 23 23 24 25 26 26
20 21 23 24 25 26 26 28 30 28 23 20 21 22 22 24 25 25 26 28 29 29 28 27 29 31 32 33 35 35 35 37 39 36 33 31 30 29 29 31 32 32 32 31 30 29 28 26 24 23 22 21 21 21 22 22 22 21 20 20 19 20 22 23 24 24 23 23 23 24 25 25 26 26 27 26 25 23 22 22 23 24 25 25 26 26
18 19 19 20 22 24 25 27 30 29 24 21 21 21 22 23 24 24 26 27 28 28 28 27 26 26 28 33 37 37 36 37 38 35 33 32 31 29 28 30 33 32 31 31 30 29 28 26 25 24 23 21 21 21 22 22 21 19 19 19 20 22 23 24 24 23 22 23 23 24 24 24 25 25 25 25 24 23 22 23 23 24 25 25 25 25
18 18 18 19 20 22 24 26 27 27 26 24 21 20 21 23 24 26 28 27 27 27 27 28 29 27 28 32 36 38 37 36 35 35 34 33 32 30 29 30 32 32 32 31 30 29 28 27 26 24 23 22 22 22 21 20 19 19 20 21 22 24 24 24 24 23 23 23 24 24 24 24 24 24 24 23 23 22 23 23 24 25 25 25 25 25
17 17 18 18 18 20 24 25 25 25 26 26 23 21 22 23 25 28 29 28 27 27 26 27 29 29 29 28 29 33 35 34 33 33 33 32 33 32 31 31 32 33 33 32 31 30 29 28 27 25 24 23 23 22 21 21 21 22 22 23 24 25 25 24 23 23 23 24 24 24 24 23 23 23 22 22 22 22 23 24 24 24 24 24 24 25
16 16 17 16 17 19 21 23 23 24 25 26 24 22 22 23 25 27 28 27 27 27 27 27 26 27 29 29 28 29 31 31 31 30 30 31 33 33 33 32 32 32 33 33 32 31 30 28 27 25 24 25 24 23 23 23 24 24 25 25 26 25 24 24 23 23 24 24 23 23 23 22 22 21 21 21 21 22 23 24 24 24 24 24 25 26
17 16 17 18 18 18 19 21 22 22 23 25 26 25 24 24 25 26 27 28 27 27 28 28 26 26 28 30 30 29 28 27 27 27 28 30 32 33 33 33 33 33 33 33 32 31 30 28 27 26 26 26 26 25 25 25 25 26 26 26 26 25 24 24 24 24 24 23 23 22 22 21 20 20 20 21 22 23 23 23 23 23 23 24 25 26
19 18 18 18 18 18 20 22 22 22 22 24 27 27 26 25 26 26 27 27 27 27 27 27 26 25 25 26 27 27 27 26 26 27 28 30 32 33 34 34 33 33 33 32 31 30 29 28 28 28 27 27 27 28 27 27 27 27 27 27 26 26 25 24 24 24 23 23 22 21 20 20 19 20 21 21 22 23 23 23 23 23 23 24 25 25
20 20 20 20 20 21 21 21 22 24 25 24 23 24 26 27 27 27 27 27 27 27 26 26 25 24 23 23 23 24 25 25 26 28 29 30 33 34 34 33 33 33 32 32 31 30 29 29 30 30 30 29 29 29 29 28 28 28 27 27 27 26 25 25 24 23 22 21 20 19 19 19 19 20 21 22 22 22 22 22 22 23 23 24 25 25
20 21 22 22 22 22 20 19 22 25 25 24 23 23 25 27 27 27 27 28 28 28 27 25 23 23 22 22 23 23 22 22 24 27 29 31 33 33 32 31 31 31 32 32 32 31 31 31 31 31 31 30 31 31 30 29 28 28 27 27 27 26 25 24 23 22 21 20 19 19 19 19 20 21 21 22 22 22 22 22 22 23 24 24 24 24
Wind_Direction
218 219 220 220 219 219 218 219 221 220 217 220 225 225 223 223 228 227 210 221 252 245 228 231 235 231 237 244 243 236 239 243 245 247 248 249 244 241 244 246 246 243 238 237 236 234 235 237 237 234 234 241 247 250 253 251 246 244 243 242 244 245 246 248 249 246 245 247 247 249 251 252 246 239 240 239 237 242 240 238 258 273 275 279 280 282
217 219 220 219 218 219 217 218 219 216 214 213 219 224 222 221 223 226 214 211 248 254 235 226 231 236 240 244 247 240 236 239 242 248 251 249 244 240 241 245 248 248 245 243 241 240 237 236 238 237 238 246 251 252 255 258 254 250 248 246 246 246 246 249 251 248 245 245 244 245 245 244 244 245 246 244 243 246 242 247 263 268 270 276 279 284
216 217 218 217 217 217 216 217 217 214 213 211 210 215 224 224 216 220 219 207 235 251 235 224 226 234 242 243 245 243 238 237 238 243 251 250 244 240 239 242 245 247 248 244 241 242 239 235 239 240 242 249 254 255 257 260 258 256 254 251 251 250 248 248 248 243 238 236 236 235 234 234 238 242 243 242 239 237 239 249 257 261 269 274 278 283
216 215 215 215 215 216 216 216 216 211 210 212 209 202 215 225 213 209 217 208 225 237 226 226 230 228 239 243 242 242 240 240 237 238 248 250 242 237 236 239 243 244 244 241 240 244 242 237 239 242 247 253 254 255 260 263 263 259 255 254 257 253 246 247 246 239 232 229 225 225 225 228 231 232 235 234 225 223 234 246 253 262 269 273 278 284
218 216 215 215 214 215 215 214 214 210 207 211 211 202 199 216 212 202 204 209 221 230 220 217 234 232 235 242 243 240 239 241 240 239 244 247 242 238 238 241 246 246 244 240 240 247 247 244 244 244 248 252 252 256 263 265 263 258 253 256 262 253 243 246 249 242 236 233 225 222 224 222 220 222 223 220 217 226 240 247 256 264 269 276 280 284
216 215 214 215 215 215 215 214 213 210 208 210 211 206 194 197 212 198 190 216 223 234 233 218 225 238 238 242 245 243 241 241 240 240 240 240 241 240 240 243 245 246 247 244 247 256 250 243 244 246 246 249 251 256 260 261 257 253 256 263 265 255 245 248 252 245 237 233 226 222 223 220 215 216 217 220 232 247 255 257 263 269 273 278 281 284
213 213 212 214 215 215 214 214 212 208 207 210 211 207 194 183 205 196 191 226 232 240 244 227 218 232 242 245 247 246 248 246 240 240 241 237 236 236 235 238 241 244 247 243 246 256 244 236 241 245 246 249 250 251 255 257 253 251 258 264 266 261 254 252 253 246 237 232 227 222 220 219 218 217 220 234 249 256 261 267 269 273 276 277 282 285
211 211 210 211 213 213 213 213 211 208 205 208 211 209 200 185 185 195 205 231 242 241 241 231 219 223 238 247 252 253 251 247 240 239 242 239 232 229 228 232 236 241 245 240 238 246 240 234 239 242 245 248 248 249 254 256 254 254 258 260 262 264 259 254 251 246 239 233 230 228 220 211 212 219 232 246 253 258 263 269 272 274 277 279 284 287
209 210 210 209 210 211 211 211 211 208 204 207 210 208 206 196 184 192 206 224 239 239 233 228 220 219 230 241 247 251 249 243 240 240 241 241 237 230 225 227 231 235 239 238 235 237 236 235 236 239 243 246 249 251 254 256 257 260 264 262 262 261 258 255 249 242 237 230 225 222 215 211 220 240 251 250 253 260 263 267 270 273 277 280 282 284
209 210 211 209 209 211 209 208 210 209 205 207 210 208 208 206 196 190 195 214 229 232 224 221 220 220 226 238 242 243 245 243 242 241 238 238 238 232 225 224 226 230 233 232 229 228 230 234 236 239 244 250 253 253 253 255 256 264 272 268 264 260 255 251 246 237 228 219 213 214 226 246 259 257 253 252 255 259 262 267 270 273 276 279 280 281
210 209 211 210 208 211 210 208 209 210 207 205 204 204 209 210 203 192 186 205 223 227 221 213 220 225 224 236 244 243 245 244 243 244 242 241 240 232 225 221 222 225 229 227 223 225 228 230 232 236 246 253 253 251 249 242 243 270 283 277 266 258 248 243 240 227 210 210 223 240 259 269 266 257 255 254 257 259 262 265 268 272 275 277 279 280
207 207 210 210 206 208 211 208 208 209 208 202 196 195 209 210 204 197 191 198 214 224 225 209 210 231 232 236 243 245 247 243 239 244 246 244 243 239 232 225 221 223 226 225 222 226 230 229 229 234 244 248 246 247 242 232 244 275 288 281 265 254 242 233 226 215 216 238 259 267 268 266 260 256 255 255 257 259 261 264 267 271 275 279 282 283
201 205 207 208 205 204 208 206 205 209 207 200 196 196 205 208 205 203 201 205 212 218 225 213 202 223 241 244 242 243 246 244 239 241 246 241 237 239 238 231 225 226 225 223 222 225 229 229 229 231 237 240 238 240 240 240 254 273 283 276 261 250 241 231 227 233 248 262 269 266 261 256 251 250 250 253 256 258 261 265 268 272 276 279 283 284
192 198 203 207 205 204 206 204 203 209 206 197 199 199 196 202 205 206 207 211 214 211 212 212 207 217 233 245 248 244 243 245 242 239 243 242 234 233 237 235 230 229 226 222 223 226 230 232 232 233 236 237 236 240 245 252 262 271 277 270 255 247 244 242 246 253 260 262 257 251 248 246 244 245 247 250 254 258 261 264 268 272 276 279 281 282
190 196 204 207 206 205 205 202 202 210 205 194 199 202 197 201 206 208 210 213 216 215 210 203 208 221 224 232 250 250 242 242 243 238 237 242 240 234 235 236 232 231 228 225 227 230 233 236 238 239 241 241 241 247 253 259 266 270 271 265 256 253 253 254 257 259 258 254 249 246 244 244 246 248 250 253 256 259 262 266 269 273 276 278 280 282
198 206 211 210 206 204 203 199 198 208 204 195 197 202 203 204 208 212 213 214 218 221 222 215 210 222 227 229 239 248 246 243 242 240 237 238 241 239 237 236 236 236 234 230 228 230 234 239 244 244 246 251 253 252 254 259 266 268 266 263 260 261 263 263 262 258 254 252 251 252 251 251 251 252 254 256 257 260 264 269 272 276 279 280 282 284
201 211 217 213 204 202 202 198 197 203 200 195 198 206 207 201 204 217 219 219 220 221 227 225 218 220 226 228 231 237 243 245 242 240 240 241 242 241 240 237 233 232 231 229 230 231 234 240 247 250 253 262 262 254 255 261 268 270 265 262 260 261 264 264 260 256 256 257 258 258 255 252 251 252 254 256 259 264 268 273 277 279 281 281 283 285
200 211 219 213 202 201 201 198 199 204 199 196 204 211 205 193 193 211 219 222 221 218 221 224 221 222 225 226 228 232 237 241 244 244 244 246 245 241 239 233 227 225 223 226 232 234 235 241 250 257 260 263 259 255 259 265 271 269 257 253 256 258 260 261 258 254 256 258 257 255 254 253 253 254 256 259 262 267 272 276 279 279 280 282 283 285
185 197 217 212 201 201 200 195 195 201 197 197 207 211 201 193 195 198 204 217 220 219 219 220 220 222 227 230 230 232 237 239 242 246 246 246 246 244 238 232 231 230 226 229 236 237 236 241 249 258 262 262 259 257 259 262 264 252 241 246 252 253 255 255 255 254 254 255 255 255 256 255 255 255 257 261 264 270 275 277 279 280 281 284 285 287
184 184 215 210 199 200 199 198 200 205 200 194 201 214 210 204 202 201 203 209 215 219 220 219 220 222 228 235 237 236 238 240 242 246 247 244 244 243 239 239 240 235 228 231 237 239 238 241 247 255 261 264 263 259 256 255 249 235 233 243 252 255 253 250 251 253 253 254 254 255 257 256 256 257 259 263 267 271 274 276 279 281 283 285 286 288
187 180 213 207 196 199 200 203 206 208 205 195 191 210 215 208 204 207 210 209 211 219 221 220 220 222 226 234 239 237 237 240 243 247 248 246 243 240 240 244 243 237 232 233 236 237 238 240 246 253 259 263 263 257 251 246 237 231 231 240 256 266 259 249 249 252 253 254 254 254 256 256 256 258 261 264 268 271 273 275 278 281 284 286 287 289
188 185 211 210 202 204 203 204 206 207 208 201 194 199 209 206 203 208 212 212 214 215 218 223 223 223 228 231 235 238 236 238 242 246 249 250 247 245 246 247 245 243 241 239 238 238 239 242 247 253 256 259 257 248 241 240 239 239 240 246 262 273 265 253 248 250 253 255 256 257 257 256 256 257 260 264 268 270 272 274 278 282 285 287 288 290
188 192 212 212 209 209 205 204 205 206 208 206 203 201 203 204 203 207 210 208 212 213 211 221 222 222 229 233 237 241 240 238 240 243 247 250 249 248 250 249 249 249 246 243 242 241 242 245 247 251 253 254 252 244 240 244 246 250 251 255 263 267 264 257 250 250 253 256 259 259 259 258 258 259 262 266 269 271 274 277 280 283 285 287 289 290
186 196 210 211 206 203 204 205 204 206 208 209 210 209 207 207 206 209 209 205 211 217 210 213 215 216 224 231 236 240 239 237 237 240 244 246 246 246 247 247 246 249 247 245 245 243 244 246 246 250 253 251 249 244 242 244 248 253 258 259 259 255 254 252 249 250 254 257 259 259 259 261 263 266 268 269 271 273 276 278 280 282 285 287 289 291
189 198 208 210 207 200 200 201 201 205 208 210 213 212 208 207 209 211 207 202 211 214 207 210 218 221 226 228 231 234 236 235 234 240 245 245 244 243 245 244 242 245 245 244 245 245 244 245 247 251 252 250 248 244 242 245 248 254 257 256 253 252 250 247 247 252 255 257 258 258 259 261 264 268 270 271 272 273 276 278 280 283 285 287 289 291
194 201 207 209 212 211 207 205 203 203 205 208 210 210 207 203 204 210 207 203 209 210 204 202 218 235 235 231 232 234 237 238 238 242 245 244 244 244 243 240 238 240 242 242 243 244 244 245 248 251 251 249 250 246 243 245 247 251 253 253 254 253 251 248 251 259 262 261 260 258 259 261 263 267 269 270 272 273 275 278 280 282 284 286 288 290
194 203 209 209 214 217 214 212 210 206 209 212 208 206 210 206 198 202 208 209 211 214 214 205 210 232 236 232 234 235 236 239 240 242 244 244 247 249 245 239 235 235 238 238 239 241 243 245 247 249 250 249 249 247 244 244 245 248 251 252 252 251 249 250 257 263 263 259 257 257 258 260 261 264 266 268 270 271 274 276 278 281 282 284 287 289
193 199 207 207 209 214 211 212 216 214 216 219 212 206 211 211 205 203 210 213 214 215 216 213 215 227 232 232 233 234 236 237 237 240 246 249 250 250 248 242 236 234 234 234 236 238 240 242 245 247 248 249 248 246 245 245 245 250 252 248 247 248 249 252 256 258 256 253 253 254 256 258 259 262 264 267 269 271 273 275 277 280 282 285 288 290
194 197 202 199 198 202 201 206 218 219 217 217 215 215 216 215 211 210 209 213 218 214 209 213 223 228 231 234 234 233 234 236 237 242 249 249 243 239 239 237 236 234 233 234 235 237 238 240 242 245 246 246 244 242 243 244 246 251 250 245 245 247 250 251 252 253 254 253 253 253 255 257 259 261 264 266 269 272 274 276 278 281 283 285 287 288
200 202 200 193 195 198 187 189 206 213 214 213 214 220 222 220 216 212 208 207 217 216 209 212 226 230 232 236 237 236 237 241 243 244 244 243 238 232 230 231 231 231 231 233 235 236 238 239 240 242 243 242 241 239 240 243 247 248 246 245 245 246 247 251 253 255 254 252 252 253 254 256 258 262 266 270 273 276 278 280 282 283 284 286 287 288
204 206 202 194 192 187 177 186 204 207 214 216 213 217 220 219 218 215 212 213 218 219 213 212 221 228 231 233 236 238 239 242 243 240 237 242 243 234 228 227 227 227 227 230 233 234 237 238 239 240 241 242 240 238 238 242 244 243 241 243 246 247 250 252 253 253 252 252 254 256 257 260 264 269 274 277 280 281 283 284 286 286 287 287 288 289
204 207 206 201 195 186 179 183 201 209 219 220 216 218 219 218 219 218 217 220 224 226 222 220 222 226 229 230 234 237 238 240 241 238 236 237 236 231 229 226 223 222 223 226 230 233 235 238 239 239 240 241 239 236 235 236 237 238 239 242 245 247 248 248 247 246 248 252 256 259 263 267 272 276 280 281 282 283 285 286 286 286 287 288 289 290
205 208 209 206 204 198 188 183 191 204 213 216 215 216 219 221 222 221 220 222 226 228 228 227 225 228 232 234 236 239 240 242 242 241 240 238 237 238 237 232 227 226 224 225 228 230 232 234 236 238 239 239 237 237 237 236 235 237 240 243 244 244 243 243 242 243 247 253 257 262 268 272 276 279 281 282 283 284 285 285 285 285 287 289 291 290
205 208 209 209 207 203 196 195 203 207 210 216 218 215 217 219 220 221 221 222 225 228 229 229 227 229 233 235 237 240 242 243 244 243 242 240 240 242 242 237 235 234 231 228 227 226 226 227 231 235 238 238 238 240 241 238 239 242 244 244 243 243 243 241 241 244 249 255 261 266 271 274 276 279 280 282 284 284 284 285 286 286 288 290 289 288
206 207 208 211 207 203 204 209 214 217 217 221 221 219 218 217 216 219 220 220 224 226 227 228 228 230 234 235 236 237 238 240 244 244 240 235 232 234 235 234 233 233 232 229 227 226 225 225 228 232 236 237 238 240 241 240 243 247 248 245 243 243 243 239 239 244 251 257 264 268 272 275 277 280 281 283 283 284 285 287 287 288 288 288 288 288
209 208 210 212 205 202 212 217 218 223 226 225 224 224 225 221 219 220 220 220 222 224 227 227 226 229 233 233 234 237 237 239 243 243 241 237 233 233 233 231 228 228 230 230 229 229 227 227 229 232 235 238 240 243 243 244 247 249 245 243 242 241 238 235 239 247 255 262 267 271 275 278 281 283 284 285 286 287 288 287 286 288 289 288 288 289
207 208 212 216 209 205 215 220 220 223 226 226 226 227 227 223 221 223 224 223 223 225 229 230 227 228 231 231 232 236 238 238 238 241 241 240 239 238 236 232 227 226 228 229 228 229 228 227 230 233 235 238 241 246 248 250 256 254 245 240 240 236 231 234 243 253 260 266 270 275 279 283 285 286 287 288 289 291 291 288 285 286 289 290 290 291
203 206 210 214 211 210 215 219 221 224 227 227 226 224 222 220 219 223 226 227 226 227 229 231 231 230 231 231 230 231 234 235 236 238 239 238 240 241 238 235 231 228 227 227 227 228 229 230 233 235 237 238 240 247 250 253 260 256 239 230 229 227 229 241 251 258 263 268 273 278 282 284 286 288 288 289 290 292 294 291 285 283 286 288 288 289
201 203 205 207 208 212 217 218 219 223 226 227 224 221 221 221 221 224 227 228 230 232 233 234 235 233 231 232 232 230 229 231 234 235 234 235 238 239 237 235 233 230 227 226 226 227 228 231 233 235 238 241 243 247 249 252 258 255 237 226 226 231 242 252 258 262 267 272 277 281 284 286 288 288 289 291 292 292 289 285 280 279 281 283 284 285
203 203 203 205 207 211 216 219 219 222 224 222 219 219 221 222 223 226 227 226 228 231 233 235 237 239 237 236 237 235 229 228 233 232 229 230 234 234 232 232 231 230 227 226 225 226 227 230 232 234 238 242 243 246 249 253 255 251 243 239 242 249 255 259 263 267 272 277 281 284 286 287 288 289 291 293 294 292 285 280 278 279 280 281 282 284
205 203 203 206 208 210 214 215 216 220 223 220 217 218 220 221 223 225 227 227 227 229 232 233 233 238 240 239 240 240 234 231 234 232 227 229 232 232 230 230 231 230 228 226 226 226 227 230 232 235 238 241 243 247 251 252 248 244 245 251 256 261 265 267 270 274 278 282 285 287 288 290 290 291 292 293 292 289 285 282 282 282 282 283 285 288
204 203 205 207 209 210 212 212 213 218 219 217 217 217 216 219 223 223 225 228 229 229 231 231 230 232 234 237 240 240 234 232 234 233 230 231 233 232 229 229 230 230 228 227 226 226 227 229 231 234 237 239 242 245 245 244 244 247 253 259 263 266 268 270 273 277 281 285 288 290 292 292 292 291 290 290 288 287 285 285 285 285 286 288 290 293
206 207 209 211 211 214 213 209 211 215 216 216 217 216 215 218 221 221 222 225 227 227 227 228 228 229 230 233 237 237 233 231 232 233 231 231 231 229 226 225 227 228 227 226 225 225 225 228 229 231 233 236 238 240 242 244 247 252 256 260 263 265 267 271 274 278 283 287 290 292 292 291 290 288 287 287 286 286 286 286 286 287 288 290 292 295
205 208 212 214 215 219 220 214 210 212 214 214 215 215 216 219 220 220 222 224 227 227 227 226 227 228 228 230 232 234 232 230 231 232 231 229 228 227 225 225 226 227 226 225 224 223 223 225 227 227 229 233 237 240 245 248 251 254 256 259 261 263 267 272 275 279 284 287 289 290 289 288 287 285 285 285 285 286 286 286 286 287 289 291 293 295
203 204 211 214 211 212 218 219 215 213 214 216 216 217 218 217 217 219 221 222 225 227 227 226 226 225 226 228 229 231 231 230 230 230 228 226 226 226 225 225 225 225 225 224 223 222 222 222 224 225 228 232 237 242 245 248 250 252 254 256 261 265 269 273 277 281 284 286 287 287 287 286 284 283 284 283 283 284 284 285 286 288 289 292 294 295
201 203 207 211 209 208 213 217 216 213 213 215 217 218 219 219 218 219 220 221 223 225 225 225 224 223 226 230 231 232 232 230 229 229 226 224 225 226 225 225 225 225 225 224 222 222 222 224 225 226 227 231 235 240 242 243 245 248 251 256 262 266 270 273 276 278 280 282 283 284 283 282 281 281 281 281 282 283 284 285 287 289 290 293 295 296
200 202 201 202 207 211 214 217 218 216 214 215 217 219 221 221 220 220 220 220 221 222 223 224 223 222 226 230 231 230 230 229 227 226 224 223 224 225 226 226 226 226 225 224 222 222 225 228 228 227 226 229 234 238 239 240 242 246 251 258 263 268 271 273 273 275 277 279 280 279 279 279 279 279 279 280 282 283 283 285 287 289 291 293 295 297
201 203 202 202 206 211 214 215 218 218 216 216 219 222 223 223 222 221 219 219 219 221 223 224 223 221 223 227 229 230 229 227 225 222 220 221 223 224 225 226 226 225 225 225 224 225 226 227 226 224 225 229 234 237 239 240 242 247 254 261 265 269 270 270 271 273 276 278 278 277 277 276 276 277 278 279 280 282 284 286 288 290 292 294 296 298
207 207 207 207 207 212 216 215 215 217 217 218 222 224 225 225 226 224 220 218 218 220 222 225 224 221 221 224 227 228 227 225 221 216 214 217 219 221 223 224 223 223 224 224 224 224 224 224 223 222 224 229 233 237 240 241 244 250 258 263 266 267 268 268 270 274 276 277 276 274 273 273 274 275 276 278 280 282 284 286 288 291 293 294 297 300
211 210 209 210 210 213 216 216 216 218 220 221 223 225 225 226 227 226 222 220 219 220 223 225 225 224 222 220 222 225 224 222 219 214 211 212 215 219 221 221 221 221 221 221 222 223 223 224 225 224 225 227 232 237 240 242 246 253 260 263 264 264 265 267 270 273 274 273 271 270 269 270 272 274 277 280 281 283 285 287 289 292 294 296 299 302
216 216 215 215 215 216 218 219 219 221 223 223 225 227 226 226 227 227 225 223 222 222 223 224 225 226 223 220 222 224 222 219 217 215 213 212 214 217 219 219 219 220 219 219 222 224 225 227 229 229 229 231 234 237 239 243 249 255 259 260 261 261 263 266 269 270 269 268 266 266 267 268 272 276 279 281 282 284 286 288 290 292 294 297 301 303
Height
5685 5688 5692 5698 5703 5707 5713 5717 5721 5726 5733 5738 5741 5745 5749 5753 5755 5760 5767 5766 5760 5763 5770 5771 5773 5776 5772 5769 5773 5775 5776 5778 5780 5781 5784 5786 5788 5788 5788 5789 5791 5792 5793 5795 5798 5800 5802 5803 5805 5807 5807 5806 5808 5809 5810 5812 5813 5812 5812 5813 5815 5816 5816 5819 5821 5822 5822 5823 5823 5824 5825 5826 5825 5827 5829 5830 5830 5831 5832 5830 5828 5828 5829 5830 5830 5831
5681 5684 5690 5696 5701 5706 5711 5713 5717 5724 5730 5734 5738 5743 5747 5750 5754 5758 5764 5766 5760 5760 5767 5769 5771 5774 5769 5767 5771 5772 5774 5776 5777 5779 5781 5783 5785 5786 5787 5787 5789 5790 5792 5795 5798 5799 5801 5803 5804 5805 5805 5805 5806 5808 5809 5811 5811 5810 5811 5812 5814 5814 5815 5818 5820 5820 5821 5821 5822 5822 5823 5823 5823 5824 5825 5826 5827 5828 5829 5828 5827 5828 5829 5829 5830 5830
5675 5680 5687 5694 5699 5702 5706 5710 5715 5722 5727 5730 5735 5741 5745 5747 5752 5757 5760 5765 5762 5758 5764 5767 5769 5771 5766 5764 5767 5768 5771 5774 5776 5778 5779 5780 5782 5783 5784 5785 5787 5788 5791 5794 5796 5797 5799 5800 5801 5802 5802 5803 5805 5806 5807 5808 5808 5808 5811 5812 5813 5814 5815 5815 5816 5816 5818 5820 5821 5821 5821 5821 5821 5823 5823 5823 5824 5827 5828 5827 5827 5828 5828 5828 5829 5829
5672 5678 5685 5690 5694 5698 5702 5708 5713 5719 5723 5727 5731 5736 5742 5744 5750 5755 5758 5763 5762 5757 5762 5766 5767 5767 5762 5760 5762 5765 5769 5772 5774 5777 5777 5778 5780 5780 5781 5782 5784 5787 5790 5793 5794 5794 5795 5797 5798 5799 5800 5801 5803 5804 5805 5806 5806 5806 5809 5810 5811 5813 5812 5811 5811 5813 5815 5817 5818 5819 5820 5821 5821 5822 5822 5821 5823 5826 5827 5826 5827 5827 5827 5827 5828 5828
5671 5678 5683 5687 5691 5695 5699 5704 5709 5715 5720 5723 5727 5732 5738 5743 5746 5752 5757 5761 5758 5755 5760 5764 5764 5762 5759 5757 5759 5764 5768 5770 5773 5776 5777 5777 5778 5778 5780 5781 5783 5785 5788 5790 5792 5793 5793 5794 5796 5797 5798 5799 5801 5803 5803 5804 5804 5804 5806 5808 5809 5810 5810 5810 5810 5811 5812 5813 5815 5817 5819 5820 5821 5821 5822 5823 5824 5826 5826 5826 5826 5826 5826 5827 5827 5826
5669 5675 5680 5684 5689 5692 5696 5701 5706 5712 5717 5720 5724 5729 5735 5742 5745 5749 5757 5758 5753 5753 5757 5762 5763 5760 5757 5755 5757 5762 5766 5769 5772 5774 5775 5777 5777 5778 5779 5780 5781 5783 5786 5788 5790 5790 5790 5791 5794 5795 5796 5797 5799 5801 5802 5803 5803 5803 5804 5805 5806 5807 5808 5809 5809 5810 5811 5812 5813 5815 5817 5818 5819 5819 5821 5822 5823 5823 5824 5824 5825 5825 5825 5825 5825 5825
5665 5671 5676 5681 5685 5689 5694 5698 5704 5710 5714 5717 5721 5726 5732 5739 5744 5749 5754 5751 5749 5753 5755 5758 5761 5759 5755 5753 5755 5761 5765 5768 5771 5773 5774 5775 5776 5777 5777 5778 5779 5781 5783 5785 5788 5787 5787 5789 5792 5794 5794 5795 5797 5799 5801 5801 5801 5801 5802 5803 5804 5804 5806 5808 5809 5809 5810 5811 5812 5813 5814 5815 5816 5818 5819 5819 5821 5822 5822 5823 5823 5823 5824 5824 5823 5823
5662 5667 5672 5676 5681 5686 5691 5695 5701 5706 5711 5714 5717 5724 5729 5735 5743 5750 5752 5748 5748 5752 5752 5753 5757 5757 5753 5752 5755 5759 5762 5765 5768 5770 5772 5773 5774 5774 5775 5776 5777 5779 5781 5783 5786 5786 5786 5788 5790 5792 5792 5793 5794 5797 5799 5799 5799 5799 5800 5802 5802 5802 5804 5806 5807 5808 5808 5809 5810 5811 5812 5813 5814 5815 5817 5817 5819 5820 5821 5821 5822 5822 5822 5822 5822 5822
5659 5663 5667 5673 5678 5682 5687 5693 5698 5703 5708 5711 5714 5722 5728 5732 5737 5745 5749 5748 5748 5749 5748 5750 5753 5753 5752 5751 5753 5756 5757 5761 5766 5768 5769 5770 5771 5772 5773 5774 5775 5776 5778 5781 5784 5785 5786 5788 5789 5790 5790 5791 5792 5794 5796 5797 5797 5798 5798 5800 5800 5801 5803 5804 5805 5805 5806 5807 5809 5810 5811 5812 5813 5814 5815 5816 5818 5819 5819 5820 5820 5821 5821 5821 5821 5820
5656 5661 5666 5671 5676 5680 5685 5690 5695 5700 5705 5710 5714 5722 5728 5730 5733 5737 5742 5746 5747 5745 5745 5748 5749 5750 5752 5750 5749 5751 5753 5758 5764 5766 5767 5768 5768 5769 5772 5773 5773 5775 5777 5780 5782 5784 5786 5787 5788 5788 5788 5789 5790 5792 5794 5795 5796 5797 5797 5798 5799 5799 5801 5802 5803 5804 5805 5807 5809 5810 5811 5811 5812 5813 5814 5815 5816 5817 5818 5818 5819 5819 5820 5820 5819 5819
5655 5661 5664 5669 5674 5679 5683 5688 5693 5698 5703 5709 5715 5721 5725 5727 5732 5735 5737 5742 5743 5740 5740 5746 5747 5748 5751 5749 5747 5750 5754 5758 5762 5763 5765 5766 5767 5768 5769 5770 5771 5774 5777 5779 5781 5783 5785 5785 5786 5787 5787 5788 5789 5790 5793 5794 5796 5796 5796 5796 5797 5797 5799 5801 5802 5804 5806 5807 5808 5809 5810 5810 5811 5811 5813 5814 5815 5816 5816 5817 5817 5818 5818 5818 5818 5817
5653 5658 5662 5667 5673 5677 5680 5685 5691 5695 5700 5706 5713 5718 5720 5723 5729 5732 5733 5735 5736 5734 5737 5743 5746 5747 5748 5747 5747 5750 5752 5755 5759 5761 5763 5765 5766 5767 5767 5768 5770 5774 5777 5779 5781 5783 5783 5784 5785 5786 5787 5787 5788 5790 5792 5793 5794 5794 5794 5794 5795 5796 5798 5800 5802 5804 5805 5806 5806 5807 5808 5808 5809 5810 5811 5812 5813 5814 5815 5815 5816 5816 5816 5816 5816 5815
5651 5655 5658 5663 5668 5671 5675 5681 5688 5691 5695 5704 5709 5712 5715 5719 5723 5726 5727 5728 5729 5731 5736 5741 5745 5747 5748 5746 5746 5749 5750 5751 5756 5760 5761 5763 5765 5765 5765 5768 5770 5773 5776 5779 5781 5781 5781 5782 5784 5785 5786 5786 5788 5789 5790 5792 5792 5793 5793 5793 5794 5795 5797 5799 5801 5802 5803 5804 5804 5805 5806 5807 5808 5809 5810 5811 5812 5812 5813 5814 5814 5814 5814 5814 5813 5813
5649 5653 5655 5657 5661 5666 5671 5678 5684 5685 5691 5700 5703 5706 5710 5713 5716 5718 5721 5724 5725 5730 5736 5741 5744 5747 5748 5746 5744 5746 5748 5750 5754 5758 5759 5760 5762 5763 5764 5767 5770 5772 5775 5778 5779 5780 5780 5781 5783 5784 5785 5786 5787 5788 5789 5790 5791 5791 5792 5792 5793 5795 5796 5798 5800 5801 5801 5802 5803 5804 5805 5805 5806 5807 5808 5809 5810 5810 5811 5811 5811 5811 5811 5811 5811 5811
5646 5647 5648 5651 5657 5664 5670 5676 5681 5684 5690 5698 5700 5703 5707 5709 5712 5715 5718 5721 5724 5729 5735 5740 5743 5744 5746 5746 5743 5743 5745 5748 5751 5755 5758 5756 5757 5760 5762 5764 5767 5771 5774 5777 5778 5779 5779 5781 5782 5783 5784 5785 5787 5788 5788 5789 5789 5790 5790 5791 5792 5794 5795 5796 5797 5798 5799 5800 5801 5802 5803 5803 5804 5805 5806 5807 5808 5808 5809 5809 5809 5809 5809 5809 5809 5809
5644 5644 5645 5650 5658 5664 5669 5675 5680 5683 5689 5696 5698 5700 5703 5708 5713 5715 5718 5721 5725 5729 5733 5737 5740 5741 5742 5743 5743 5742 5743 5745 5747 5751 5755 5754 5754 5759 5762 5763 5768 5771 5774 5776 5776 5777 5779 5780 5780 5781 5782 5784 5785 5787 5787 5788 5788 5788 5788 5789 5791 5792 5792 5793 5794 5796 5797 5798 5799 5800 5801 5802 5803 5804 5805 5806 5806 5806 5807 5807 5807 5807 5807 5807 5807 5807
5642 5644 5646 5652 5659 5664 5668 5674 5677 5679 5687 5693 5694 5696 5701 5709 5714 5716 5718 5721 5724 5728 5731 5734 5737 5737 5739 5740 5740 5741 5741 5743 5744 5746 5750 5751 5753 5759 5762 5764 5769 5771 5772 5774 5774 5775 5777 5778 5779 5780 5781 5782 5783 5784 5785 5786 5786 5786 5786 5787 5788 5789 5790 5791 5793 5794 5796 5797 5798 5799 5799 5800 5801 5802 5803 5803 5804 5804 5804 5805 5805 5805 5805 5805 5805 5804
5643 5645 5646 5651 5658 5662 5667 5673 5676 5679 5685 5690 5691 5694 5701 5708 5713 5716 5718 5719 5722 5725 5728 5731 5733 5735 5736 5736 5737 5738 5739 5741 5742 5743 5747 5748 5751 5757 5762 5764 5767 5768 5770 5771 5771 5772 5775 5776 5777 5778 5779 5780 5781 5782 5783 5783 5784 5784 5785 5786 5787 5788 5789 5790 5792 5793 5795 5796 5797 5797 5798 5798 5799 5800 5800 5801 5801 5802 5802 5802 5803 5803 5803 5803 5802 5802
5643 5645 5646 5650 5656 5660 5665 5671 5674 5676 5682 5688 5691 5694 5698 5703 5707 5711 5714 5715 5718 5721 5724 5728 5731 5733 5734 5733 5734 5737 5738 5740 5741 5741 5744 5744 5747 5756 5761 5763 5765 5766 5768 5769 5769 5770 5773 5774 5775 5776 5777 5778 5780 5781 5781 5781 5782 5783 5784 5785 5786 5787 5788 5789 5791 5792 5793 5794 5795 5795 5796 5797 5797 5797 5798 5799 5799 5800 5800 5800 5800 5800 5800 5800 5799 5799
5641 5644 5645 5648 5654 5658 5662 5666 5668 5672 5678 5685 5689 5692 5695 5701 5705 5708 5710 5713 5715 5718 5721 5726 5729 5731 5732 5731 5732 5736 5737 5738 5740 5740 5741 5742 5747 5755 5758 5760 5763 5764 5765 5766 5767 5768 5771 5772 5773 5774 5775 5777 5778 5779 5779 5780 5781 5782 5783 5784 5785 5786 5787 5788 5790 5791 5792 5792 5793 5794 5795 5795 5795 5796 5796 5797 5797 5798 5798 5798 5798 5798 5798 5797 5797 5796
5639 5643 5643 5646 5651 5654 5658 5662 5665 5670 5676 5681 5685 5689 5692 5696 5702 5706 5708 5711 5714 5716 5719 5722 5725 5728 5731 5730 5731 5733 5735 5737 5738 5737 5738 5740 5747 5752 5754 5757 5760 5761 5762 5763 5764 5766 5768 5770 5771 5772 5774 5775 5776 5777 5778 5779 5780 5781 5782 5783 5784 5785 5786 5787 5788 5789 5790 5791 5792 5793 5793 5794 5794 5794 5795 5795 5795 5795 5795 5795 5795 5795 5795 5794 5794 5794
5637 5641 5641 5644 5649 5652 5656 5662 5666 5671 5676 5679 5683 5687 5689 5693 5699 5703 5705 5709 5712 5715 5717 5720 5723 5727 5729 5729 5728 5730 5733 5736 5736 5735 5735 5738 5743 5748 5751 5754 5756 5758 5759 5760 5762 5764 5766 5768 5769 5770 5772 5773 5774 5776 5776 5777 5779 5780 5781 5782 5783 5784 5784 5785 5786 5787 5789 5790 5790 5791 5791 5792 5792 5792 5792 5792 5793 5793 5793 5793 5792 5792 5792 5792 5791 5791
5636 5639 5639 5643 5648 5652 5656 5662 5666 5670 5675 5678 5680 5684 5688 5693 5697 5699 5703 5708 5710 5713 5716 5718 5722 5725 5726 5726 5727 5728 5731 5734 5734 5733 5733 5735 5740 5745 5748 5751 5753 5755 5757 5758 5760 5762 5764 5766 5767 5768 5770 5771 5772 5774 5775 5776 5777 5778 5779 5780 5782 5782 5783 5784 5784 5785 5787 5788 5788 5789 5789 5789 5789 5790 5790 5790 5790 5790 5790 5790 5790 5790 5789 5789 5788 5788
5634 5636 5638 5642 5647 5652 5655 5660 5665 5668 5672 5675 5677 5682 5687 5691 5694 5697 5701 5707 5709 5711 5714 5716 5718 5720 5721 5723 5724 5725 5728 5732 5733 5731 5729 5733 5738 5743 5746 5749 5751 5753 5754 5757 5758 5760 5762 5764 5765 5766 5768 5769 5770 5772 5773 5774 5775 5776 5778 5779 5780 5780 5781 5782 5783 5784 5785 5785 5786 5786 5787 5787 5787 5788 5788 5788 5788 5788 5788 5788 5788 5787 5787 5786 5785 5785
5632 5634 5636 5640 5644 5649 5652 5656 5660 5663 5667 5670 5674 5679 5685 5690 5693 5696 5700 5705 5707 5709 5711 5714 5715 5715 5716 5719 5721 5723 5726 5729 5730 5728 5727 5730 5735 5740 5744 5747 5749 5750 5752 5755 5756 5758 5760 5761 5762 5764 5766 5767 5768 5770 5771 5772 5773 5775 5776 5776 5777 5778 5779 5780 5781 5782 5782 5783 5784 5784 5784 5785 5785 5785 5785 5786 5786 5786 5786 5785 5785 5784 5784 5783 5782 5782
5631 5633 5635 5639 5642 5646 5649 5651 5654 5658 5662 5666 5671 5676 5681 5686 5690 5694 5697 5700 5702 5704 5708 5712 5714 5713 5713 5717 5719 5721 5724 5726 5726 5726 5726 5728 5732 5737 5742 5745 5746 5748 5750 5753 5754 5756 5757 5759 5760 5762 5764 5765 5766 5768 5769 5770 5771 5772 5773 5775 5776 5777 5777 5778 5779 5780 5780 5781 5782 5782 5782 5783 5783 5783 5783 5783 5783 5783 5783 5783 5782 5782 5781 5780 5779 5779
5629 5632 5635 5639 5643 5648 5652 5653 5656 5659 5662 5666 5670 5674 5678 5682 5687 5691 5693 5695 5699 5702 5705 5709 5712 5710 5710 5714 5717 5718 5720 5720 5721 5723 5724 5726 5731 5736 5739 5742 5744 5745 5747 5750 5751 5753 5755 5757 5758 5759 5761 5763 5765 5766 5767 5768 5769 5770 5771 5773 5774 5775 5775 5776 5777 5777 5778 5779 5779 5780 5780 5780 5780 5780 5780 5780 5780 5780 5780 5780 5779 5779 5778 5777 5776 5776
5626 5630 5634 5639 5644 5649 5652 5653 5656 5660 5664 5667 5670 5673 5675 5679 5683 5687 5690 5693 5697 5699 5702 5706 5708 5706 5707 5711 5713 5714 5715 5716 5717 5720 5722 5726 5730 5733 5736 5739 5741 5742 5745 5747 5748 5750 5753 5754 5755 5757 5759 5761 5762 5764 5764 5765 5766 5768 5769 5771 5772 5772 5773 5774 5775 5775 5776 5776 5777 5778 5778 5778 5778 5778 5778 5778 5778 5778 5777 5777 5776 5776 5775 5774 5773 5772
5625 5629 5633 5639 5645 5649 5651 5653 5656 5659 5662 5665 5668 5670 5672 5677 5681 5684 5688 5692 5694 5695 5699 5703 5704 5704 5705 5707 5709 5711 5712 5713 5716 5720 5722 5725 5727 5730 5733 5735 5737 5740 5742 5744 5745 5748 5750 5751 5753 5755 5757 5758 5760 5760 5761 5762 5764 5765 5766 5768 5769 5770 5771 5771 5772 5773 5774 5775 5775 5775 5776 5776 5776 5776 5776 5776 5776 5775 5775 5774 5773 5772 5772 5771 5770 5769
5624 5628 5633 5638 5643 5646 5650 5654 5656 5657 5659 5662 5665 5667 5670 5675 5679 5682 5685 5689 5690 5692 5697 5700 5699 5701 5703 5704 5705 5707 5709 5712 5716 5719 5722 5723 5725 5728 5730 5732 5734 5737 5739 5741 5743 5745 5746 5748 5750 5752 5754 5756 5757 5757 5758 5760 5762 5763 5764 5765 5767 5768 5768 5769 5770 5771 5772 5772 5773 5773 5773 5773 5773 5773 5773 5773 5773 5772 5772 5771 5770 5769 5768 5767 5766 5765
5623 5628 5632 5637 5642 5644 5648 5653 5655 5655 5656 5659 5662 5664 5667 5671 5675 5678 5681 5684 5686 5689 5694 5696 5696 5698 5700 5700 5701 5704 5706 5709 5713 5717 5720 5721 5724 5726 5728 5729 5731 5734 5736 5738 5740 5741 5742 5745 5747 5750 5752 5753 5754 5755 5757 5758 5759 5760 5762 5763 5764 5766 5766 5767 5768 5769 5769 5770 5770 5770 5770 5770 5770 5770 5770 5769 5769 5769 5768 5767 5767 5766 5765 5764 5763 5761
5624 5629 5632 5635 5639 5642 5645 5649 5653 5654 5655 5657 5659 5661 5664 5667 5671 5674 5678 5681 5683 5686 5690 5692 5695 5697 5696 5697 5699 5702 5704 5707 5710 5714 5716 5718 5721 5723 5725 5727 5729 5731 5733 5734 5736 5737 5740 5742 5745 5748 5749 5749 5749 5751 5754 5755 5755 5757 5759 5761 5762 5763 5764 5765 5765 5766 5767 5767 5767 5767 5767 5767 5767 5767 5766 5766 5766 5765 5765 5764 5763 5762 5761 5760 5759 5758
5624 5626 5630 5633 5636 5639 5642 5646 5649 5650 5652 5654 5656 5659 5662 5665 5668 5671 5675 5678 5680 5683 5686 5690 5695 5696 5694 5695 5698 5700 5702 5705 5707 5710 5713 5716 5718 5720 5722 5724 5726 5728 5730 5730 5732 5735 5738 5740 5742 5744 5744 5744 5746 5749 5751 5752 5753 5755 5757 5759 5760 5761 5762 5763 5763 5764 5764 5764 5764 5764 5764 5764 5764 5764 5763 5763 5763 5762 5761 5760 5759 5758 5757 5757 5755 5754
5621 5624 5628 5631 5634 5638 5641 5643 5644 5645 5648 5650 5652 5656 5660 5663 5665 5668 5671 5674 5676 5679 5683 5687 5691 5691 5690 5692 5696 5698 5701 5703 5705 5707 5709 5712 5714 5716 5719 5722 5724 5726 5727 5728 5730 5732 5735 5737 5739 5739 5740 5742 5745 5748 5750 5751 5752 5754 5755 5756 5757 5758 5759 5760 5761 5761 5761 5762 5762 5762 5762 5761 5761 5761 5760 5760 5759 5759 5758 5757 5756 5755 5754 5753 5751 5750
5619 5623 5627 5630 5633 5636 5638 5639 5641 5643 5646 5648 5651 5654 5656 5659 5661 5664 5667 5671 5673 5676 5678 5682 5686 5687 5687 5689 5693 5695 5697 5700 5701 5704 5706 5708 5710 5713 5715 5719 5721 5723 5724 5725 5728 5730 5732 5733 5734 5735 5737 5740 5743 5745 5748 5750 5750 5751 5752 5752 5753 5755 5756 5757 5758 5758 5759 5759 5759 5759 5759 5758 5758 5757 5757 5757 5756 5755 5754 5753 5752 5751 5750 5749 5747 5746
5619 5623 5626 5628 5632 5634 5635 5637 5640 5642 5644 5647 5650 5652 5654 5656 5659 5661 5663 5666 5669 5672 5674 5677 5682 5684 5684 5687 5690 5692 5694 5696 5698 5701 5704 5706 5708 5711 5713 5717 5719 5720 5721 5724 5726 5727 5729 5730 5731 5732 5735 5737 5740 5742 5744 5746 5746 5746 5747 5748 5749 5752 5753 5754 5755 5755 5756 5756 5756 5756 5756 5755 5755 5754 5753 5753 5752 5751 5750 5748 5747 5747 5745 5744 5743 5743
5618 5622 5624 5627 5630 5633 5634 5636 5639 5641 5642 5645 5647 5650 5652 5655 5657 5659 5661 5663 5666 5669 5671 5674 5678 5681 5681 5684 5687 5689 5691 5694 5695 5698 5701 5704 5706 5709 5712 5715 5716 5718 5719 5721 5723 5724 5726 5727 5728 5730 5732 5735 5736 5738 5741 5743 5743 5743 5742 5743 5745 5748 5750 5751 5752 5752 5753 5753 5753 5753 5753 5752 5751 5750 5750 5749 5748 5747 5745 5744 5743 5743 5742 5741 5740 5739
5617 5620 5623 5626 5629 5631 5632 5634 5637 5638 5640 5643 5646 5648 5650 5652 5654 5656 5658 5660 5663 5667 5669 5671 5675 5678 5679 5680 5683 5686 5688 5691 5693 5695 5699 5702 5704 5706 5709 5712 5714 5715 5717 5718 5720 5722 5723 5724 5726 5727 5730 5732 5734 5736 5738 5739 5740 5739 5738 5739 5742 5745 5747 5748 5749 5749 5750 5750 5750 5750 5749 5749 5748 5747 5746 5745 5744 5743 5741 5740 5739 5739 5739 5738 5737 5736
5616 5618 5621 5624 5627 5629 5631 5633 5635 5637 5639 5641 5643 5646 5648 5649 5651 5653 5656 5658 5661 5664 5667 5669 5672 5675 5677 5678 5678 5682 5687 5689 5690 5693 5697 5699 5701 5703 5706 5708 5710 5712 5714 5716 5717 5719 5720 5722 5723 5725 5727 5729 5732 5733 5734 5736 5737 5737 5737 5739 5741 5743 5745 5746 5746 5746 5747 5747 5747 5746 5745 5745 5744 5743 5742 5741 5740 5738 5737 5736 5736 5735 5735 5734 5734 5733
5614 5617 5620 5622 5625 5627 5629 5631 5633 5635 5637 5639 5641 5644 5645 5647 5649 5651 5653 5656 5659 5661 5663 5666 5669 5672 5675 5675 5674 5678 5685 5687 5688 5692 5695 5696 5698 5700 5702 5704 5707 5709 5711 5713 5715 5716 5718 5719 5720 5723 5725 5727 5729 5730 5731 5732 5734 5735 5737 5738 5740 5741 5742 5742 5743 5743 5743 5743 5743 5742 5742 5741 5740 5739 5738 5737 5735 5734 5734 5733 5733 5732 5732 5731 5731 5730
5614 5616 5619 5621 5623 5625 5627 5629 5632 5633 5635 5638 5640 5642 5643 5645 5647 5649 5650 5653 5656 5657 5659 5663 5666 5669 5672 5672 5672 5676 5682 5684 5685 5688 5692 5693 5695 5698 5699 5701 5704 5706 5708 5710 5712 5714 5715 5716 5718 5721 5723 5725 5726 5727 5728 5730 5731 5733 5735 5736 5737 5738 5738 5738 5739 5739 5739 5739 5739 5738 5737 5737 5736 5735 5734 5733 5732 5731 5731 5730 5730 5729 5729 5728 5728 5727
5613 5615 5617 5619 5622 5624 5626 5628 5630 5632 5634 5636 5638 5639 5641 5643 5644 5646 5648 5650 5652 5655 5657 5660 5663 5666 5668 5669 5669 5672 5677 5679 5680 5684 5688 5691 5693 5694 5696 5699 5701 5703 5705 5707 5709 5711 5712 5714 5716 5719 5720 5722 5723 5724 5726 5727 5729 5731 5732 5733 5734 5734 5734 5735 5735 5735 5735 5735 5735 5734 5733 5732 5732 5731 5730 5730 5729 5728 5728 5727 5727 5727 5726 5726 5725 5723
5613 5615 5617 5619 5621 5623 5624 5627 5629 5630 5632 5634 5636 5637 5639 5640 5642 5644 5646 5647 5649 5652 5654 5657 5660 5662 5665 5666 5667 5668 5672 5675 5676 5680 5685 5687 5688 5690 5693 5695 5697 5699 5702 5704 5706 5708 5710 5712 5714 5716 5718 5719 5721 5722 5724 5725 5727 5728 5729 5729 5730 5730 5731 5731 5732 5732 5732 5731 5731 5730 5730 5729 5729 5728 5728 5727 5726 5726 5725 5725 5724 5724 5723 5722 5721 5720
5612 5614 5616 5619 5621 5622 5623 5624 5626 5628 5631 5632 5634 5635 5637 5638 5641 5642 5644 5645 5647 5649 5651 5654 5657 5659 5661 5662 5663 5664 5667 5671 5673 5677 5681 5684 5684 5687 5690 5692 5693 5696 5699 5701 5703 5705 5707 5710 5712 5714 5715 5717 5718 5720 5721 5722 5723 5724 5725 5726 5726 5727 5728 5728 5728 5728 5728 5728 5727 5727 5726 5726 5726 5725 5725 5724 5724 5723 5723 5722 5722 5721 5720 5719 5718 5717
5611 5613 5615 5617 5619 5620 5621 5622 5624 5627 5629 5630 5632 5634 5635 5637 5638 5639 5641 5643 5644 5646 5649 5651 5653 5655 5656 5657 5658 5660 5664 5668 5671 5674 5678 5680 5681 5684 5686 5688 5690 5693 5696 5698 5700 5702 5704 5707 5709 5711 5713 5714 5715 5717 5718 5719 5720 5721 5722 5722 5723 5724 5724 5724 5725 5725 5725 5725 5724 5724 5723 5723 5723 5722 5722 5721 5721 5720 5720 5719 5719 5718 5717 5716 5715 5714
5610 5612 5613 5615 5617 5618 5619 5620 5622 5625 5627 5629 5631 5632 5633 5635 5636 5637 5639 5640 5642 5644 5646 5648 5650 5652 5653 5654 5656 5658 5661 5665 5668 5671 5674 5677 5678 5680 5683 5685 5687 5690 5693 5695 5697 5700 5702 5704 5706 5709 5710 5712 5713 5714 5715 5716 5717 5718 5719 5719 5720 5721 5721 5721 5721 5722 5722 5721 5721 5720 5720 5720 5719 5719 5719 5718 5718 5718 5717 5716 5716 5715 5714 5713 5712 5712
5609 5611 5613 5614 5616 5617 5618 5619 5621 5623 5625 5627 5629 5630 5631 5633 5634 5635 5637 5639 5640 5642 5644 5646 5648 5649 5650 5652 5654 5656 5658 5662 5666 5669 5671 5673 5675 5677 5680 5682 5684 5688 5690 5692 5694 5697 5699 5702 5704 5706 5708 5709 5710 5711 5712 5713 5714 5715 5716 5717 5717 5717 5718 5718 5718 5718 5718 5718 5717 5717 5717 5717 5716 5716 5716 5715 5715 5714 5714 5713 5713 5712 5711 5710 5710 5709
5608 5610 5612 5613 5614 5616 5617 5618 5619 5621 5624 5625 5626 5628 5629 5631 5632 5633 5635 5637 5638 5640 5641 5643 5645 5647 5648 5650 5652 5654 5657 5661 5664 5666 5668 5670 5672 5674 5676 5678 5681 5684 5686 5689 5692 5694 5697 5699 5701 5703 5704 5706 5707 5708 5709 5710 5711 5712 5713 5714 5714 5714 5714 5715 5715 5715 5715 5714 5714 5714 5714 5713 5713 5713 5713 5712 5712 5711 5711 5710 5710 5709 5708 5708 5707 5706
5607 5609 5610 5612 5613 5615 5615 5616 5618 5620 5622 5623 5624 5625 5627 5629 5630 5632 5634 5635 5637 5638 5639 5641 5643 5644 5647 5649 5650 5652 5655 5659 5660 5663 5665 5667 5669 5672 5673 5676 5679 5681 5683 5686 5689 5691 5693 5695 5697 5699 5701 5703 5704 5705 5706 5707 5708 5709 5710 5710 5711 5711 5711 5711 5711 5711 5711 5711 5711 5710 5710 5710 5710 5710 5710 5709 5709 5709 5708 5707 5707 5706 5706 5705 5705 5704
5606 5607 5608 5610 5611 5612 5613 5614 5616 5618 5619 5620 5622 5623 5625 5626 5628 5630 5632 5634 5635 5637 5637 5639 5641 5643 5646 5648 5648 5649 5653 5656 5657 5659 5662 5664 5666 5669 5671 5673 5676 5678 5680 5683 5685 5687 5690 5692 5694 5696 5698 5699 5700 5702 5703 5704 5706 5706 5707 5707 5707 5707 5708 5708 5708 5708 5708 5708 5707 5707 5708 5708 5708 5707 5707 5707 5706 5706 5705 5705 5704 5704 5703 5703 5702 5701
5604 5605 5606 5608 5609 5610 5612 5614 5615 5615 5617 5618 5619 5620 5622 5623 5626 5628 5630 5632 5634 5635 5636 5638 5640 5641 5644 5646 5647 5648 5651 5654 5655 5657 5659 5661 5663 5666 5668 5671 5673 5675 5677 5680 5682 5684 5686 5688 5691 5693 5695 5696 5698 5699 5700 5702 5703 5703 5704 5704 5704 5704 5704 5705 5705 5705 5705 5705 5705 5705 5705 5705 5705 5705 5704 5704 5704 5703 5702 5702 5702 5701 5701 5700 5699 5698